TimeAEST,TemperatureF,Dew PointF,Humidity,Sea Level PressureIn,VisibilityMPH,Wind Direction,Wind SpeedMPH,Gust SpeedMPH,PrecipitationIn,Events,Conditions,WindDirDegrees,DateUTC
12:00 AM,59.0,59.0,100,30.21,-9999.0,Calm,Calm,-,N/A,,Unknown,0,2013-09-06 14:00:00
12:16 AM,57.2,57.2,100,30.18,0.6,North,3.5,-,N/A,,Unknown,350,2013-09-06 14:16:00
12:30 AM,57.2,57.2,100,30.18,0.2,Calm,Calm,-,N/A,,Scattered Clouds,0,2013-09-06 14:30:00
1:00 AM,57.2,57.2,100,30.18,0.1,Calm,Calm,-,N/A,,Scattered Clouds,0,2013-09-06 15:00:00
1:30 AM,57.2,57.2,100,30.18,0.2,North,1.2,-,N/A,,Scattered Clouds,10,2013-09-06 15:30:00
1:32 AM,57.2,57.2,100,30.18,0.2,North,1.2,-,N/A,,Mostly Cloudy,10,2013-09-06 15:32:00
2:00 AM,57.2,57.2,100,30.15,0.1,Calm,Calm,-,N/A,,Mostly Cloudy,0,2013-09-06 16:00:00
2:30 AM,55.4,55.4,100,30.15,0.2,South,3.5,-,N/A,,Mostly Cloudy,180,2013-09-06 16:30:00
3:00 AM,55.4,53.6,94,30.15,0.1,Calm,Calm,-,N/A,,Mostly Cloudy,0,2013-09-06 17:00:00
3:10 AM,53.6,53.6,100,30.15,0.6,Calm,Calm,-,N/A,,Scattered Clouds,0,2013-09-06 17:10:00
3:16 AM,53.6,53.6,100,30.15,3.7,Calm,Calm,-,N/A,,Scattered Clouds,0,2013-09-06 17:16:00
3:19 AM,53.6,53.6,100,30.15,1.6,Calm,Calm,-,N/A,,Mostly Cloudy,0,2013-09-06 17:19:00
3:22 AM,53.6,53.6,100,30.15,0.6,Calm,Calm,-,N/A,,Mostly Cloudy,0,2013-09-06 17:22:00
3:30 AM,53.6,53.6,100,30.15,0.6,Calm,Calm,-,N/A,,Mostly Cloudy,0,2013-09-06 17:30:00
3:38 AM,53.6,53.6,100,30.15,-9999.0,Calm,Calm,-,N/A,,Mostly Cloudy,0,2013-09-06 17:38:00
4:00 AM,53.6,53.6,100,30.15,0.2,Calm,Calm,-,N/A,,Overcast,0,2013-09-06 18:00:00
4:30 AM,55.4,55.4,100,30.15,0.1,Calm,Calm,-,N/A,,Overcast,0,2013-09-06 18:30:00
5:00 AM,53.6,53.6,100,30.15,0.1,Calm,Calm,-,N/A,,Overcast,0,2013-09-06 19:00:00
5:30 AM,53.6,53.6,100,30.15,0.0,Calm,Calm,-,N/A,,Overcast,0,2013-09-06 19:30:00
6:00 AM,53.6,53.6,100,30.18,0.1,Calm,Calm,-,N/A,,Overcast,0,2013-09-06 20:00:00
6:30 AM,53.6,53.6,100,30.18,0.1,Calm,Calm,-,N/A,,Overcast,0,2013-09-06 20:30:00
7:00 AM,55.4,55.4,100,30.18,0.1,Calm,Calm,-,N/A,,Overcast,0,2013-09-06 21:00:00
7:30 AM,55.4,55.4,100,30.18,0.1,Calm,Calm,-,N/A,,Overcast,0,2013-09-06 21:30:00
8:00 AM,57.2,57.2,100,30.21,0.1,Calm,Calm,-,N/A,,Overcast,0,2013-09-06 22:00:00
8:30 AM,59.0,59.0,100,30.21,0.2,Calm,Calm,-,N/A,,Overcast,0,2013-09-06 22:30:00
8:48 AM,59.0,59.0,100,30.21,0.6,Calm,Calm,-,N/A,,Overcast,0,2013-09-06 22:48:00
9:00 AM,60.8,60.8,100,30.18,3.1,Calm,Calm,-,N/A,,Mostly Cloudy,0,2013-09-06 23:00:00
9:14 AM,62.6,62.6,100,30.18,6.2,Calm,Calm,-,N/A,,Scattered Clouds,0,2013-09-06 23:14:00
9:16 AM,62.6,62.6,100,30.18,6.2,Calm,Calm,-,N/A,,Scattered Clouds,0,2013-09-06 23:16:00
9:30 AM,66.2,64.4,94,30.18,6.2,Calm,Calm,-,N/A,,Unknown,0,2013-09-06 23:30:00
10:00 AM,71.6,60.8,69,30.18,6.2,NNE,4.6,-,N/A,,Unknown,30,2013-09-07 00:00:00
10:30 AM,77.0,55.4,47,30.15,6.2,NE,6.9,-,N/A,,Unknown,40,2013-09-07 00:30:00
11:00 AM,80.6,51.8,37,30.15,6.2,NE,4.6,-,N/A,,Unknown,50,2013-09-07 01:00:00
11:30 AM,82.4,48.2,30,30.12,6.2,ENE,1.2,-,N/A,,Unknown,60,2013-09-07 01:30:00
12:00 PM,84.2,46.4,27,30.12,6.2,SSE,2.3,-,N/A,,Unknown,160,2013-09-07 02:00:00
12:30 PM,87.8,39.2,18,30.09,6.2,West,15.0,-,N/A,,Unknown,260,2013-09-07 02:30:00
1:00 PM,89.6,39.2,17,30.09,6.2,West,12.7,-,N/A,,Unknown,270,2013-09-07 03:00:00
1:30 PM,87.8,39.2,18,30.06,6.2,WSW,15.0,-,N/A,,Unknown,240,2013-09-07 03:30:00
2:00 PM,87.8,39.2,18,30.06,6.2,West,17.3,-,N/A,,Unknown,280,2013-09-07 04:00:00
2:30 PM,87.8,39.2,18,30.06,6.2,WSW,17.3,-,N/A,,Unknown,250,2013-09-07 04:30:00
3:00 PM,87.8,37.4,17,30.06,6.2,WNW,16.1,-,N/A,,Unknown,290,2013-09-07 05:00:00
3:30 PM,87.8,37.4,17,30.06,6.2,West,15.0,-,N/A,,Unknown,270,2013-09-07 05:30:00
4:00 PM,86.0,37.4,18,30.06,6.2,West,16.1,-,N/A,,Unknown,270,2013-09-07 06:00:00
4:30 PM,86.0,39.2,19,30.06,6.2,West,15.0,-,N/A,,Unknown,270,2013-09-07 06:30:00
5:00 PM,84.2,41.0,22,30.06,6.2,West,11.5,-,N/A,,Unknown,270,2013-09-07 07:00:00
5:30 PM,80.6,41.0,24,30.09,6.2,West,6.9,-,N/A,,Unknown,270,2013-09-07 07:30:00
6:00 PM,77.0,41.0,28,30.09,6.2,SW,3.5,-,N/A,,Unknown,220,2013-09-07 08:00:00
6:30 PM,73.4,55.4,53,30.12,6.2,SE,12.7,-,N/A,,Unknown,140,2013-09-07 08:30:00
7:00 PM,69.8,60.8,73,30.15,6.2,SE,11.5,-,N/A,,Unknown,140,2013-09-07 09:00:00
7:30 PM,68.0,59.0,73,30.15,6.2,SSE,8.1,-,N/A,,Unknown,150,2013-09-07 09:30:00
8:00 PM,66.2,59.0,78,30.18,6.2,South,5.8,-,N/A,,Unknown,180,2013-09-07 10:00:00
8:30 PM,64.4,57.2,77,30.21,6.2,Calm,Calm,-,N/A,,Scattered Clouds,0,2013-09-07 10:30:00
9:00 PM,64.4,57.2,77,30.21,6.2,Calm,Calm,-,N/A,,Mostly Cloudy,0,2013-09-07 11:00:00
9:30 PM,64.4,57.2,77,30.21,6.2,Calm,Calm,-,N/A,,Scattered Clouds,0,2013-09-07 11:30:00
10:00 PM,62.6,59.0,88,30.21,6.2,Calm,Calm,-,N/A,,Scattered Clouds,0,2013-09-07 12:00:00
10:30 PM,62.6,59.0,88,30.21,6.2,SSW,2.3,-,N/A,,Mostly Cloudy,210,2013-09-07 12:30:00
11:00 PM,62.6,59.0,88,30.24,6.2,WSW,5.8,-,N/A,,Overcast,240,2013-09-07 13:00:00
11:30 PM,62.6,59.0,88,30.24,6.2,SW,1.2,-,N/A,,Overcast,220,2013-09-07 13:30:00